Weather History for Hastings, NE

Change the Weather History Date:

Thursday, February 24, 2011

  Actual Average Record
Temperature  
Mean Temperature 18 °F 32 °F  
Max Temperature 26 °F 43 °F 76 °F (1981)
Min Temperature 10 °F 22 °F -10 °F (1914)
Degree Days  
Heating Degree Days 47 33  
Month to date heating degree days 877 855  
Since 1 July heating degree days 4602 4504  
Cooling Degree Days 0 0  
Month to date cooling degree days 0 0  
Year to date cooling degree days 0 0  
Moisture  
Dew Point 15 °F    
Average Humidity 84    
Maximum Humidity 92    
Minimum Humidity 76    
Precipitation  
Precipitation 0.19 in 0.02 in 0.68 in (2007)
Month to date precipitation 0.29 0.40  
Year to date precipitation 1.29 0.81  
Snow  
Snow 2.80 in 0.20 in 4.50 in (1997)
Month to date snowfall 4.5 5.8  
Since 1 July snowfall 27.9 21.7  
Snow Depth 0.00 in    
Sea Level Pressure  
Sea Level Pressure 30.09 in    
Wind  
Wind Speed 19 mph (NNE)    
Max Wind Speed 25 mph    
Max Gust Speed 31 mph    
Visibility 5 miles    
Events Fog , Snow    
T = Trace of Precipitation, MM = Missing Value Source: NWS Daily Summary

Daily Weather History Graph

Daily Weather History Graph

Search for Another Location

Airport:

Trip Planner

Search our weather history database for the weather conditions in past years. The results will help you decide how hot, cold, wet, or windy it might be!

Date:

Astronomy

Feb. 24, 2011 Rise Set
Actual Time 7:15 AM CST 6:19 PM CST
Civil Twilight 6:47 AM CST 6:46 PM CST
Nautical Twilight 6:16 AM CST 7:18 PM CST
Astronomical Twilight 5:44 AM CST 7:50 PM CST
Moon 1:16 AM CST (2/24) 10:48 AM CST (2/24)
Length of Visible Light 11h 59m
Length of Day
11h 03m
Waning Gibbous, 53% of the Moon is Illuminated
Feb 24
Waning Gibbous
Feb 24
Last Quarter
Mar 4
New
Mar 12
First Quarter
Mar 19
Full

Hourly Weather History & Observations

Time (CST) Temp. Windchill Dew Point Humidity Pressure Visibility Wind Dir Wind Speed Gust Speed Precip Events Conditions
12:53 AM 25.0 °F 12.6 °F 21.9 °F 88% 30.09 in 10.0 mi NE 15.0 mph - N/A   Clear
1:00 AM 24.8 °F 14.0 °F 21.2 °F 86% 30.05 in 10.0 mi NE 11.5 mph - N/A   Scattered Clouds
1:09 AM 24.8 °F 12.4 °F 21.2 °F 86% 30.06 in 10.0 mi NE 15.0 mph - N/A   Mostly Cloudy
1:53 AM 25.0 °F 10.6 °F 21.9 °F 88% 30.09 in 10.0 mi NNE 20.7 mph - N/A   Overcast
2:53 AM 24.1 °F 11.0 °F 21.9 °F 91% 30.06 in 7.0 mi NE 16.1 mph - N/A   Overcast
3:53 AM 21.9 °F 6.9 °F 19.0 °F 89% 30.06 in 6.0 mi NE 19.6 mph - N/A   Overcast
4:53 AM 21.0 °F 5.7 °F 19.0 °F 92% 30.08 in 5.0 mi NE 19.6 mph - N/A   Overcast
5:53 AM 19.9 °F 4.8 °F 17.1 °F 89% 30.11 in 5.0 mi NNE 18.4 mph - N/A   Overcast
6:53 AM 19.0 °F 2.7 °F 16.0 °F 88% 30.10 in 5.0 mi NNE 20.7 mph - N/A   Overcast
7:53 AM 19.0 °F 2.0 °F 17.1 °F 92% 30.09 in 4.0 mi NNE 23.0 mph - N/A   Overcast
8:53 AM 19.9 °F 3.5 °F 16.0 °F 85% 30.08 in 6.0 mi NE 21.9 mph 29.9 mph N/A   Overcast
9:36 AM 21.2 °F 5.6 °F 15.8 °F 80% 30.00 in 7.0 mi NNE 20.7 mph 31.1 mph N/A   Mostly Cloudy
9:53 AM 21.0 °F 5.7 °F 16.0 °F 81% 30.09 in 7.0 mi NNE 19.6 mph 24.2 mph N/A   Mostly Cloudy
10:49 AM 21.2 °F 7.3 °F 15.8 °F 80% 30.06 in 2.5 mi NE 16.1 mph - 0.00 in Snow Light Snow
10:53 AM 21.0 °F 6.6 °F 16.0 °F 81% 30.14 in 1.0 mi NE 17.3 mph - 0.00 in Snow Light Snow
10:56 AM 21.2 °F 6.8 °F 17.6 °F 86% 30.07 in 0.5 mi NNE 17.3 mph - 0.00 in Fog , Snow Snow
11:16 AM 21.2 °F 6.4 °F 17.6 °F 86% 30.05 in 0.2 mi NNE 18.4 mph - 0.01 in Fog , Snow Heavy Snow
11:53 AM 21.0 °F 9.3 °F 19.0 °F 92% 30.13 in 0.5 mi NE 11.5 mph - 0.02 in Fog , Snow Snow
12:03 PM 21.2 °F 7.3 °F 17.6 °F 86% 30.04 in 1.0 mi NE 16.1 mph - 0.00 in Snow Light Snow
12:16 PM 21.2 °F 7.8 °F 17.6 °F 86% 30.03 in 0.8 mi NNE 15.0 mph - 0.00 in Snow Light Snow
12:30 PM 21.2 °F 7.8 °F 17.6 °F 86% 30.03 in 0.5 mi NNE 15.0 mph - 0.00 in Fog , Snow Snow
12:45 PM 21.2 °F 6.8 °F 17.6 °F 86% 30.01 in 0.5 mi NNE 17.3 mph - 0.00 in Fog , Snow Snow
12:53 PM 21.0 °F 6.2 °F 18.0 °F 88% 30.09 in 0.5 mi NNE 18.4 mph - 0.00 in Fog , Snow Snow
1:31 PM 21.2 °F 6.0 °F 17.6 °F 86% 30.00 in 0.8 mi NNE 19.6 mph - 0.00 in Snow Light Snow
1:53 PM 21.0 °F 5.7 °F 18.0 °F 88% 30.07 in 0.5 mi NNE 19.6 mph - 0.00 in Fog , Snow Snow
2:31 PM 21.2 °F 6.8 °F 17.6 °F 86% 29.99 in 0.5 mi NNE 17.3 mph - N/A Fog , Snow Snow
2:46 PM 21.2 °F 5.2 °F 17.6 °F 86% 29.99 in 0.8 mi North 21.9 mph 27.6 mph 0.01 in Snow Light Snow
2:53 PM 21.0 °F 5.7 °F 17.1 °F 85% 30.08 in 0.8 mi NNE 19.6 mph 27.6 mph 0.01 in Snow Light Snow
3:53 PM 19.9 °F 3.9 °F 17.1 °F 89% 30.10 in 0.8 mi North 20.7 mph - 0.00 in Snow Light Snow
4:53 PM 19.0 °F 3.2 °F 15.1 °F 85% 30.12 in 0.8 mi North 19.6 mph - 0.00 in Snow Light Snow
5:12 PM 19.4 °F 4.5 °F 15.8 °F 86% 30.03 in 1.0 mi North 17.3 mph 27.6 mph 0.00 in Snow Light Snow
5:31 PM 17.6 °F 1.7 °F 15.8 °F 93% 30.04 in 1.5 mi NNE 18.4 mph - 0.00 in Snow Light Snow
5:44 PM 17.6 °F 4.3 °F 15.8 °F 93% 30.04 in 2.0 mi NNE 12.7 mph - 0.00 in Snow Light Snow
5:53 PM 18.0 °F 3.6 °F 15.1 °F 88% 30.14 in 1.8 mi North 15.0 mph - 0.00 in Snow Light Snow
6:05 PM 17.6 °F 2.2 °F 14.0 °F 86% 30.05 in 2.5 mi North 17.3 mph - 0.00 in Snow Light Snow
6:16 PM 17.6 °F 1.7 °F 12.2 °F 79% 30.05 in 4.0 mi NNE 18.4 mph 27.6 mph 0.00 in Snow Light Snow
6:53 PM 15.1 °F -0.1 °F 10.9 °F 84% 30.16 in 8.0 mi North 15.0 mph - 0.00 in Snow Light Snow
7:11 PM 14.0 °F -0.2 °F 8.6 °F 79% 30.07 in 10.0 mi North 12.7 mph - 0.00 in   Overcast
7:24 PM 14.0 °F -1.4 °F 8.6 °F 79% 30.08 in 10.0 mi North 15.0 mph - 0.00 in   Scattered Clouds
7:53 PM 14.0 °F -3.0 °F 9.0 °F 80% 30.18 in 10.0 mi North 18.4 mph - 0.00 in   Mostly Cloudy
8:21 PM 12.2 °F -4.8 °F 8.6 °F 85% 30.11 in 10.0 mi North 17.3 mph 24.2 mph N/A   Overcast
8:53 PM 12.9 °F -6.1 °F 8.1 °F 81% 30.22 in 10.0 mi North 23.0 mph 28.8 mph N/A   Overcast
9:48 PM 12.2 °F -6.3 °F 6.8 °F 79% 30.14 in 8.0 mi North 20.7 mph - 0.00 in Snow Light Snow
9:53 PM 12.0 °F -6.0 °F 7.0 °F 80% 30.24 in 9.0 mi North 19.6 mph - 0.00 in   Overcast
10:53 PM 10.9 °F -8.8 °F 6.1 °F 81% 30.26 in 10.0 mi North 23.0 mph - N/A   Overcast
11:53 PM 10.0 °F -7.1 °F 5.0 °F 80% 30.28 in 10.0 mi North 16.1 mph - N/A   Overcast